STARLINK-33815, 63497

Orbit data source: Space-Track

STARLINK-33815, 63497 is a payload satellite owned by SpaceX/Seattle (US) in LEO that was launched on Mon, 07 Apr 2025 UTC via an FALCON 9 launch vehicle from the Air Force Western Test Range (AFWTR). Payload-class satellites include a variety of spacecraft equipped with specific instruments for various scientific and technological missions. These include communications satellites like Starlink; space stations such as the ISS; scientific satellites like the Hubble; Earth observation satellites from companies like Planet Labs, Umbra, and HawkEye 360; GPS; miniature CubeSats for education and research; and military/defense satellites.

Loading next visibility...
Identifier
63497, 2025-071E
Orbit
LEO
Last TLE update
11 hours ago
Origin
Manufacturer
SpaceX/Seattle
Mission
Operational Commercial Communications
Bus & Motor
STARLINK V2MO, Unknown motor
Mass
575 kg wet, ~530 kg dry
Launch date (UTC)
2025-04-07 (3 months ago)
Launch vehicle
FALCON 9
Launch site
Air Force Western Test Range (AFWTR)
Object type
Payload
Rocket body
Debris
Shape & HBR
Box + 1 Pan, 29 m
Radar Cross Section
41.120 m², Large (>1 m²)

Expand to show TLE details & history

TLE from 11 hours ago
0 STARLINK-33815
1 63497U 25071E   25182.39853266  .00032174  00000-0  81070-3 0  9990
2 63497  53.1572 228.0346 0000719  40.6306 319.4752 15.39628443 14286
Epoch: 2025-07-01T09:33Z
TLE epoch observation values (Epoch: 2025-07-01T09:33:53.221Z)
Latitude
-0.00007°
Longitude
164.86824°
Altitude
447.737 km
Speed
7.645 km/s
True Right ascension
15h 12m 08s
True Declination
0° 00' 00"
Sunlit
Object was in full shadow at epoch
Visualization orbit readout
Latitude
40.6329°
Longitude
-157.57449°
Altitude
450.362 km
Speed
7.648 km/s
Apparent Right ascension
18h 59m 59s
Apparent Declination
2° 08' 19"
Sunlit
Object is in full shadow
Visualization observer readout
Local Sidereal Time
08:22:24
Azimuth
29.217° NE
Elevation
-43.906°
Doppler factor
1
Orbital elements
Apogee altitude
447.956 km
Perigee altitude
446.974 km
Semi-major axis
6,825.602 km
Eccentricity
0.00007
Inclination
53.1572°
RAAN
228.0346°
Arg. of periapsis
40.6306°
True anomaly
Unknown
Mean anomaly
319.4752°
Eccentric anomaly
Unknown
Mean motion
3.84886 °/min
Orbital period
93.53 mins
BSTAR
0.0008107
Loading maneuver chart data...
Loading SW <> Apogee altitude chart data...
Loading historical data...
Loading historical data...
Loading historical data...
Loading historical data...
Loading historical data...
Loading historical data...
Loading historical data...

STARLINK-33815 Visibility forecast

Observer location: undefined°, undefined°

Span
Click to sort rows by Start time (UTC) header in descending order
Start Az.
Max El. time (UTC)
Max El. Az.
Max El.
End time (UTC)
End Az.
5 mins2025-07-02 06:01:16.346Z243.372° WSW2025-07-02 06:03:16.346Z305.981° NW42.208°2025-07-02 06:06:16.346Z43.61° NE
5 mins2025-07-02 12:34:16.346Z307.765° NW2025-07-02 12:36:16.346Z144.837° SSE43.339°2025-07-02 12:39:16.346Z132.887° SE
|